This demonstration page uses our WeatherBlox Daily Observations layout. Learn more.

36.17497, -115.13722

Hourly Observations for April 10, 2020

Temp ( °F °C ) Dew Point ( °F °C ) Humidity (%) Winds ( mph kmh ) Pressure ( in mb ) Visibility ( mi km ) Precip ( " mm )
12:53 am 00:53 Cloudy 55 12.8 34 1.1 45 45 NNW 14 22 30.08 1019 10 16.0934 0 0
1:53 am 01:53 Cloudy 55 12.8 35 1.7 47 47 NW 14 22 30.07 1018 10 16.0934 0 0
2:53 am 02:53 Cloudy 54 12.2 34 1.1 47 47 NW 12 19 30.06 1018 10 16.0934 0 0
3:53 am 03:53 Cloudy 54 12.2 34 1.1 47 47 NW 13 20 30.05 1018 10 16.0934 0 0
4:53 am 04:53 Clear 53 11.7 36 2.2 52 52 NNW 9 15 30.04 1017 10 16.0934 0 0
5:53 am 05:53 Mostly Cloudy 53 11.7 35 1.7 51 51 NNW 12 19 30.03 1017 10 16.0934 0 0
6:53 am 06:53 Cloudy 53 11.7 35 1.7 51 51 NW 12 19 30.05 1018 10 16.0934 0 0
7:53 am 07:53 Cloudy 54 12.2 36 2.2 51 51 NW 15 24 30.06 1018 10 16.0934 0 0
8:53 am 08:53 Cloudy 56 13.3 36 2.2 47 47 W 8 13 30.06 1018 10 16.0934 0 0
9:53 am 09:53 Cloudy 58 14.4 35 1.7 42 42 NNW 7 11 30.06 1018 10 16.0934 0 0
10:53 am 10:53 Mostly Sunny 59 15 34 1.1 39 39 WNW 3 6 30.05 1018 10 16.0934 0 0
11:53 am 11:53 Cloudy 60 15.6 33 0.6 36 36 Calm 30.05 1018 10 16.0934 0 0
12:53 pm 12:53 Cloudy with Light Rain 58 14.4 36 2.2 44 44 Calm 30.05 1018 10 16.0934 0.001 0.001
1:53 pm 13:53 Cloudy 59 15 37 2.8 44 44 N 6 9 30.05 1018 10 16.0934 0.001 0.001
2:53 pm 14:53 Mostly Cloudy 61 16.1 37 2.8 41 41 undefined N/A 30.02 1017 10 16.0934 0 0
3:53 pm 15:53 Sunny 62 16.7 37 2.8 40 40 undefined N/A 30 1016 10 16.0934 0 0
4:53 pm 16:53 Cloudy 61 16.1 36 2.2 39 39 VRB 7 11 29.97 1015 10 16.0934 0 0
5:53 pm 17:53 Cloudy 61 16.1 36 2.2 39 39 Calm 29.97 1015 10 16.0934 0 0
6:53 pm 18:53 Cloudy 61 16.1 35 1.7 38 38 SW 5 7 29.96 1015 10 16.0934 0 0
7:53 pm 19:53 Mostly Cloudy 60 15.6 36 2.2 41 41 Calm 29.97 1015 10 16.0934 0 0
8:53 pm 20:53 Mostly Clear 60 15.6 36 2.2 41 41 WNW 3 6 29.98 1015 10 16.0934 0 0
9:53 pm 21:53 Clear 58 14.4 36 2.2 44 44 NNW 5 7 29.98 1015 10 16.0934 0 0
10:53 pm 22:53 Cloudy 58 14.4 37 2.8 46 46 WNW 6 9 29.97 1015 10 16.0934 0 0
11:53 pm 23:53 Partly Cloudy 57 13.9 38 3.3 49 49 WNW 5 7 29.96 1015 10 16.0934 0 0

Powered by AerisWeather